Regional Weather Roundup
Issued by NWS

Home | Current Version | Previous Version | Text Only | Print | Product List | Glossary Off
Versions: 1 2 3 4 5 6 7 8 9 10 11 12 13 14 15 16 17 18 19 20 21 22 23 24 25 26 27 28 29 30 31 32 33 34 35 36 37 38 39 40 41 42 43 44 45 46 47 48 49 50

000
ASUS43 KMPX 280710
RWRMN
WEATHER ROUNDUP FOR MINNESOTA
NATIONAL WEATHER SERVICE TWIN CITIES/CHANHASSEN MN
200 AM CDT THU JUL 28 2016


NOTE: "FAIR" INDICATES FEW OR NO CLOUDS BELOW 12,000 FEET WITH NO
SIGNIFICANT WEATHER AND/OR OBSTRUCTIONS TO VISIBILITY. N/A MEANS
CURRENT SKY AND/OR WEATHER CONDITIONS ARE NOT AVAILABLE.

MNZ060>063-068>070-280800-
   Twin Cities Metro

CITY           SKY/WX    TMP DP  RH WIND       PRES   REMARKS
TWIN CITIES    CLOUDY    67  63  87 N10       29.99S
ST PAUL        CLOUDY    67  64  90 N10       29.99S
CRYSTAL        CLOUDY    65  61  87 N9        29.99S
BLAINE         CLOUDY    66  64  94 N12       30.00S
LAKEVILLE      CLOUDY    66  66 100 N7        29.98F
EDEN PRAIRIE   CLOUDY    68  63  84 N7        29.98S
LAKEVILLE      CLOUDY    66  66 100 N7        29.98F
SOUTH ST PAUL  CLOUDY    68  66  93 N6        29.98S
LAKE ELMO      CLOUDY    66  64  94 N6        29.99F
$$
MNZ001>005-007-008-013>017-022>024-027-028-280800-
   Northwest Minnesota

CITY           SKY/WX    TMP DP  RH WIND       PRES   REMARKS
BEMIDJI        CLOUDY    63  59  88 VRB5      30.09R
HALLOCK        MOCLDY    57  55  94 NE7       30.12S
ROSEAU         PTCLDY    57  52  82 NE9       30.12F
WARROAD        PTCLDY    61  57  88 N7        30.13S
THIEF RVR FALL PTCLDY    62  57  83 NE9       30.11R
CROOKSTON      CLOUDY    63  59  88 NE3       30.09S
FOSSTON        CLOUDY    63  57  82 NE3       30.09S
DETROIT LAKES  CLOUDY    64  61  88 CALM      30.08S
MOORHEAD       CLOUDY    61  59  94 N3        30.07S
PARK RAPIDS    PTCLDY    61  59  93 NW3       30.07R
MAHNOMEN       FAIR      61  60  96 NE5       30.08S
$$
MNZ006-009>011-018-025>026-280800-
   North Central Minnesota

CITY           SKY/WX    TMP DP  RH WIND       PRES   REMARKS
BAUDETTE       PTCLDY    58  53  84 NE7       30.12S
FLAG ISLAND    CLEAR     61  52  72 NE3       30.13S
INTL FALLS     PTCLDY    61  54  77 NE6       30.10F
WASKISH        MOCLDY    61  55  82 NE5       30.10S
BIG FORK       PTCLDY    59  55  88 NE3       30.09S
LONGVILLE      PTCLDY    61  61 100 CALM      30.06S FOG
GRAND RAPIDS   PTCLDY    57  57 100 CALM      30.10R FOG
ORR            CLEAR     54  52  94 CALM      30.07S
COOK           CLEAR     54  54 100 CALM      30.09S
WALKER         PTSUNNY   58  58  97 CALM      30.07R
$$
MNZ012-019>021-037-280800-
   Northeast Minnesota

CITY           SKY/WX    TMP DP  RH WIND       PRES   REMARKS
DULUTH         MOCLDY    58  55  90 N5        30.05F
ELY            CLEAR     54  52  94 CALM      30.08S
HIBBING        FOG       52  52 100 CALM      30.08R VSB 1/4
EVELETH        CLEAR     58  57  97 CALM      30.08F FOG
DULUTH HARBOR  CLEAR     63  57  82 NE7       30.04S
TWO HARBORS    PTCLDY    64  57  77 N5        30.03F
SILVER BAY     MOCLDY    57  55  94 CALM      30.05S
GRAND MARAIS     N/A     56  54  93 N3        30.06S
$$
MNZ029>031-032-039>041-046>048-054>057-064-280800-
   West Central Minnesota

CITY           SKY/WX    TMP DP  RH WIND       PRES   REMARKS
FERGUS FALLS   PTCLDY    64  64 100 E3        30.07S
WHEATON        CLOUDY    64  61  88 NW5       30.07S
MORRIS         PTCLDY    61  59  94 N3        30.03F
ALEXANDRIA     PTCLDY    64  61  90 NE3       30.06S
ELBOW LAKE     FAIR      63  62  97 NE3       30.05F
WADENA         CLOUDY    61  59  94 NE3       30.06S
GLENWOOD       CLOUDY    63  63 100 NE7       30.05F
APPLETON       CLOUDY    64  59  82 NE3       30.03S
BENSON         CLOUDY    63  57  82 CALM      30.04S
ORTONVILLE     CLOUDY    64  57  77 NW7       30.05R
MADISON        CLOUDY    63  59  88 NW7       30.04S
WILLMAR        FAIR      64  63  94 N5        30.05R
$$
MNZ033>034-036-042>043-049>051-058-059-280800-
   Central Minnesota

CITY           SKY/WX    TMP DP  RH WIND       PRES   REMARKS
ST CLOUD       PTCLDY    61  60  97 NE6       30.02F
SAUK CENTRE    FAIR      62  61  96 N6        30.06R
PAYNESVILLE    PTCLDY    62  62 100 N3        30.04S
AITKIN         CLOUDY    57  54  88 VRB1      30.05S VSB 1/2
PINE RIVER     PTCLDY    61  61 100 CALM      30.10R
BRAINERD       CLOUDY    61  60  97 CALM      30.06R
STAPLES        CLOUDY    63  61  94 NE3       30.06S
LONG PRAIRIE   MOCLDY    63  61  94 N3        30.07R
LITTLE FALLS   PTCLDY    61  57  88 CALM      30.05S
LITCHFIELD     CLOUDY    64  64 100 N5        30.03S
BUFFALO        CLOUDY    64  60  87 N9        30.02S
MAPLE LAKE     CLOUDY    64  62  94 N9        30.03S
HUTCHINSON     MOCLDY    65  64  95 N3        30.02S
$$
MNZ037-044-045-052-053-280800-
   East Central Minnesota

CITY           SKY/WX    TMP DP  RH WIND       PRES   REMARKS
PRINCETON      CLOUDY    63  61  94 N5        30.03F
MORA           MOCLDY    55  55 100 CALM      30.06R
CAMBRIDGE      CLOUDY    64  57  77 N5        30.01R
RUSH CITY      RAIN      61  60  95 N5        30.03R
MOOSE LAKE     PTCLDY    55  54  94 CALM      30.04R
HINCKLEY       CLOUDY    59  59 100 N6        30.04R
CLOQUET        CLOUDY    57  54  88 CALM      30.07R
MCGREGOR         N/A     57  55  94 CALM      30.07R VSB 3/4
$$
MNZ071>073-080-081-089-090-097-098-280800-
   Southwest Minnesota

CITY           SKY/WX    TMP DP  RH WIND       PRES   REMARKS
MONTEVIDEO     PTCLDY    63  57  82 N6        30.05S
GRANITE FALLS  PTCLDY    65  62  90 NW7       30.04F
CANBY          MOCLDY    62  58  86 NW6       30.05F
MARSHALL       PTCLDY    61  59  93 NW6       30.04F
REDWOOD FALLS  CLOUDY    66  62  87 NW5       30.02R
OLIVIA         CLOUDY    63  61  94 N3        30.02S
PIPESTONE      PTCLDY    64  59  82 VRB3      30.06S
WINDOM         CLOUDY    64  61  88 N7        30.03S
WORTHINGTON    PTCLDY    64  60  87 N8        30.04S
JACKSON        PTCLDY    64  63  94 N3        30.02F
TRACY          PTCLDY    64  61  91 NW6       30.04F
SLAYTON        PTCLDY    63  59  86 NW9       30.06S
$$
MNZ065>067-074>077-082>085-091>093-280800-
   South Central Minnesota

CITY           SKY/WX    TMP DP  RH WIND       PRES   REMARKS
MANKATO        CLOUDY    64  59  82 N7        30.00R
NEW ULM        CLOUDY    64  64 100 N3        30.01S
ST JAMES       PTCLDY    59  59 100 NW3       30.01F
FAIRMONT       PTCLDY    64  63  94 N5        29.99S
GLENCOE        CLOUDY    66  66  97 N7        30.00S
FARIBAULT      MOCLDY    66  64  94 NW6       29.98S
OWATONNA       MOCLDY    66  64  94 NW5       29.98S
WASECA         CLOUDY    63  61  94 NW3       30.00R
ALBERT LEA     MOCLDY    66  64  94 CALM      29.98S
$$
MNZ078>079-086>088-094>096-280800-
   Southeast Minnesota

CITY           SKY/WX    TMP DP  RH WIND       PRES   REMARKS
ROCHESTER      CLOUDY    66  66 100 NW7       29.97S
RED WING       CLOUDY    68  64  88 NE5       29.95S
STANTON        CLOUDY    68  64  88 N7        29.95F
DODGE CENTER   CLOUDY    66  64  94 NW7       29.97F
WINONA         RAIN      70  68  94 CALM      29.93S
AUSTIN         CLEAR     64  63  94 NW3       29.96F
PRESTON        PTCLDY    65  64  93 NW5       29.95F
$$
ABBREVIATIONS USED IN REMARKS
   TC - TEMPERATURES IN CELSIUS
  WCI - WIND CHILL INDEX
   HX - HEAT INDEX
  VSB - VISIBILITY
$$




USA.gov is the U.S. government's official web portal to all federal, state and local government web resources and services.